1378252826470,136.922
1378252886470,137.092
1378252946470,137.063
1378253006470,137.135
1378253066470,136.915
1378253126470,137.025
1378253186470,136.874
1378253246470,137.337
1378253306470,137.367
1378253366470,137.152
1378253426470,137.443
1378253486470,137.176
1378253546470,137.154
1378253606470,137.072
1378253666470,137.037
1378253726470,137.114
1378253786470,137.315
1378253846470,137.289
1378253906470,137.225
1378253966471,136.847
1378254026470,137.138
1378254086470,137.494
1378254146470,137.253
1378254206470,137.125
1378254266470,137.249
1378254326470,137.312
1378254386470,137.212
1378254446470,137.509
1378254506470,137.264
1378254566470,137.407
1378254626470,137.364
1378254686470,137.430
1378254746470,137.402
1378254806470,137.594
1378254866470,137.548
1378254926470,137.563
1378254986470,137.490
1378255046470,137.348
1378255106470,137.854
1378255166470,137.873
1378255226470,137.770
1378255286471,137.920
1378255346470,137.966
1378255406470,137.465
1378255466470,137.835
1378255526470,137.509
1378255586470,138.083
1378255646470,137.838
1378255706470,137.411
1378255766470,137.846
1378255826470,137.452
1378255886470,137.893
1378255946470,137.746
1378256006470,137.685
1378256066470,137.594
1378256126470,137.736
1378256186470,137.726
1378256246470,137.653
1378256306470,137.839
1378256366470,137.468
1378256426483,137.666
1378256486483,137.797
1378256546483,137.564
1378256606483,137.825
1378256666483,137.518
1378256726483,137.462
1378256786483,137.616
1378256846483,137.594
1378256906483,137.283
1378256966483,137.511
1378257026483,137.614
1378257086483,137.749
1378257146483,137.420
1378257206483,137.610
1378257266483,137.368
1378257326483,137.701
1378257386483,137.592
1378257446483,137.540
1378257506483,137.552
1378257566483,137.758
1378257626483,137.742
1378257686483,137.521
1378257746483,137.644
1378257806483,137.768
1378257866483,137.796
1378257926483,138.013
1378257986483,137.940
1378258046483,137.895
1378258106483,137.809
1378258166483,137.836
1378258226483,137.506
1378258286483,137.669
1378258346483,137.940
1378258406483,137.714
1378258466483,137.803
1378258526483,137.824
1378258586483,137.975
1378258646483,137.733
1378258706483,137.572
1378258766483,137.359
1378258826483,137.721
1378258886483,137.577
1378258946483,137.818
1378259006483,137.728
1378259066483,137.817
1378259126483,137.819
1378259186483,137.687
1378259246483,137.727
1378259306483,138.004
1378259366483,137.545
1378259426483,137.721
1378259486483,137.885
1378259546483,137.747
1378259606483,138.101
1378259666483,137.909
1378259726483,138.045
1378259786483,137.823
1378259846483,137.990
1378259906483,137.961
1378259966483,137.702
1378260026495,138.008
1378260086495,137.830
1378260146495,138.111
1378260206495,138.074
1378260266495,138.222
1378260326495,137.970
1378260386495,138.028
1378260446495,138.136
1378260506495,138.359
1378260566495,137.960
1378260626495,138.147
1378260686495,137.933
1378260746495,138.239
1378260806495,138.222
1378260866495,138.020
1378260926495,138.125
1378260986495,138.376
1378261046495,138.056
1378261106495,138.085
1378261166495,138.182
1378261226495,138.271
1378261286495,138.237
1378261346495,138.262
1378261406495,138.075
1378261466495,138.408
1378261526495,138.422
1378261586495,138.415
1378261646495,137.944
1378261706495,138.354
1378261766495,138.186
1378261826495,138.317
1378261886495,138.433
1378261946495,138.124
1378262006495,138.472
1378262066495,138.441
1378262126495,138.267
1378262186495,138.584
1378262246495,138.057
1378262306495,138.208
1378262366495,138.240
1378262426495,137.926
1378262486495,138.154
1378262546495,138.582
1378262606495,138.441
1378262666495,138.151
1378262726495,138.380
1378262786495,138.312
1378262846495,138.458
1378262906495,138.479
1378262966495,138.445
1378263026495,138.481
1378263086495,138.539
1378263146495,138.307
1378263206495,138.291
1378263266495,138.356
1378263326495,138.579
1378263386495,138.417
1378263446495,138.173
1378263506495,138.441
1378263566495,138.218
1378263626507,138.283
1378263686507,138.303
1378263746507,138.386
1378263806507,138.448
1378263866507,138.094
1378263926507,138.038
1378263986507,138.146
1378264046507,138.167
1378264106507,138.314
1378264166507,138.147
1378264226507,138.227
1378264286507,138.430
1378264346507,138.027
1378264406507,137.940
1378264466507,138.148
1378264526507,138.107
1378264586507,138.091
1378264646507,138.001
1378264706507,137.928
1378264766507,137.946
1378264826507,137.933
1378264886507,137.927
1378264946507,138.039
1378265006507,137.857
1378265066507,138.129
1378265126507,138.032
1378265186507,138.108
1378265246507,138.262
1378265306507,137.842
1378265366507,138.039
1378265426507,138.332
1378265486507,137.918
1378265546507,137.923
1378265606507,137.885
1378265666507,138.091
1378265726507,137.791
1378265786507,138.387
1378265846507,138.016
1378265906507,138.097
1378265966507,138.002
1378266026507,137.996
1378266086507,138.205
1378266146507,138.305
1378266206507,138.301
1378266266507,138.327
1378266326507,138.177
1378266386507,137.953
1378266446507,138.634
1378266506507,138.151
1378266566507,138.334
1378266626507,138.005
1378266686507,138.030
1378266746507,137.736
1378266806507,137.899
1378266866507,137.980
1378266926507,137.866
1378266986507,138.082
1378267046507,138.033
1378267106507,137.983
1378267166507,137.939
1378267226519,137.879
1378267286519,137.973
1378267346519,137.703
1378267406519,138.095
1378267466519,137.728
1378267526519,137.847
1378267586519,137.958
1378267646519,138.274
1378267706519,138.221
1378267766519,138.138
1378267826519,137.723
1378267886519,138.060
1378267946519,137.788
1378268006519,138.002
1378268066519,137.989
1378268126519,137.701
1378268186519,138.083
1378268246519,137.791
1378268306519,137.931
1378268366519,138.018
1378268426519,138.036
1378268486519,137.821
1378268546519,138.021
1378268606519,137.957
1378268666519,138.085
1378268726519,138.013
1378268786519,138.155
1378268846519,138.372
1378268906519,138.437
1378268966519,138.544
1378269026519,138.345
1378269086519,138.446
1378269146519,138.217
1378269206519,137.867
1378269266519,137.851
1378269326519,138.488
1378269386519,138.229
1378269446519,138.341
1378269506519,138.183
1378269566519,138.274
1378269626519,138.082
1378269686519,137.995
1378269746519,138.055
1378269806519,138.213
1378269866519,137.905
1378269926519,138.173
1378269986519,138.336
1378270046519,137.934
1378270106519,138.132
1378270166519,138.015
1378270226519,138.006
1378270286519,138.035
1378270346519,138.218
1378270406519,138.083
1378270466519,137.716
1378270526519,137.821
1378270586519,137.809
1378270646519,138.047
1378270706519,137.846
1378270766519,137.892
1378270826531,137.634
1378270886531,137.992
1378270946531,137.734
1378271006531,137.721
1378271066531,138.228
1378271126531,137.904
1378271186531,137.684
1378271246531,137.832
1378271306531,137.996
1378271366531,137.682
1378271426531,137.697
1378271486531,137.973
1378272026531,137.798
1378272086531,134.176
1378272146531,137.670
1378272206531,138.296
1378272266531,137.685
1378272326531,137.776
1378272386531,137.918
1378272446531,137.675
1378272506531,138.077
1378272566531,137.865
1378272626531,137.611
1378272686531,137.743
1378272746531,137.797
1378272806531,137.692
1378272866531,137.718
1378272926531,137.914
1378272986531,137.625
1378273046531,137.826
1378273106531,137.783
1378273166531,137.921
1378273226531,137.984
1378273286531,138.182
1378273346531,137.871
1378273406531,137.969
1378273466531,137.722
1378273526531,137.907
1378273586531,137.584
1378273646531,137.458
1378273706531,137.833
1378273766531,137.714
1378273826531,137.709
1378273886531,137.658
1378273946531,137.756
1378274006531,137.647
1378274066531,137.404
1378274126531,137.488
1378274186531,137.787
1378274246531,137.394
1378274306531,137.388
1378274366531,137.063
1378274426542,137.350
1378274486542,137.271
1378274546542,137.367
1378274606542,137.476
1378274666542,137.500
1378274726542,137.247
1378274786542,137.294
1378274846542,137.282
1378274906542,137.612
1378274966542,137.599
1378275026542,137.595
1378275086542,137.297
1378275146542,137.419
1378275206542,137.795
1378275266542,137.513
1378275326542,137.686
1378275386542,137.590
1378275446542,137.743
1378275506542,137.401
1378275566542,137.264
1378275626542,137.510
1378275686542,137.262
1378275746542,137.694
1378275806542,137.656
1378275866542,137.986
1378275926542,137.845
1378275986542,137.336
1378276046542,137.691
1378276106542,137.897
1378276166542,137.805
1378276226542,137.876
1378276286542,137.965
1378276346542,137.805
1378276406542,137.689
1378276466542,138.055
1378276526542,137.803
1378276586542,137.947
1378276646542,137.660
1378276706542,137.450
1378288166577,139.117
1378288226577,139.158
1378288286577,138.705
1378288346577,139.081
1378288406577,138.764
1378288466577,138.838
1378288526577,138.801
1378288586577,138.930
1378288646577,138.726
1378288706577,138.844
1378288766577,138.644
1378288826590,138.695
1378288886590,138.505
1378288946590,138.608
1378289006590,138.575
1378289066590,138.712
1378289126590,138.585
1378289186590,138.875
1378289246590,138.255
1378289306589,138.374
1378289366589,138.384
1378289426589,138.752
1378289486589,138.531
1378289546589,138.292
1378289606589,138.618
1378289666589,138.237
1378289726589,138.409
1378289786590,138.557
1378289846590,138.561
1378289906590,138.630
1378289966589,138.818
1378290026589,138.676
1378290086589,138.354
1378290146590,138.432
1378290206590,138.265
1378290266590,138.507
1378290326590,138.395
1378290386590,138.130
1378290446590,138.376
1378290506590,138.606
1378290566590,138.447
1378290626589,138.513
1378290686589,138.131
1378290746589,138.263
1378290806589,138.296
1378290866589,138.546
1378290926589,138.830
1378290986589,138.806
1378291046589,138.764
1378291106589,138.496
1378291166590,138.596
1378291226590,138.609
1378291286589,138.749
1378291346589,138.583
1378291406589,138.577
1378291466590,138.398
1378291526590,138.566
1378291586590,138.547
1378291646590,138.664
1378291706590,138.350
1378291766590,138.571
1378291826590,138.640
1378291886590,138.487
1378291946590,138.618
1378292006589,138.371
1378292066589,138.334
1378292126589,138.606
1378292186589,138.460
1378292246589,138.609
1378292306589,138.659
1378292366589,138.546
1378292426602,138.618
1378292486602,138.673
1378292546602,138.790
1378292606602,138.256
1378292666602,138.470
1378292726602,138.360
1378292786602,138.572
1378292846602,138.397
1378292906602,138.483
1378292966602,138.447
1378293026602,138.297
1378293086602,138.268
1378293146602,138.124
1378293206602,138.126
1378293266602,137.944
1378293326602,138.192
1378293386602,138.292
1378293446602,138.179
1378293506602,138.155
1378293566602,138.186
1378293626602,138.263
1378293686602,138.355
1378293746602,137.728
1378293806602,138.240
1378293866602,138.178
1378293926602,138.171
1378293986602,138.256
1378294046602,138.264
1378294106602,138.215
1378294166602,138.235
1378294226602,138.087
1378294286602,138.029
1378294346602,138.424
1378294406602,138.112
1378294466602,138.159
1378294526602,138.400
1378294586602,137.981
1378294646602,138.004
1378294706602,138.255
1378294766602,137.994
1378294826602,137.963
1378294886602,138.243
1378294946602,137.612
1378295006602,137.630
1378295066602,137.991
1378295126602,138.032
1378295186602,137.825
1378295246602,137.794
1378295306602,137.668
1378295366602,137.850
1378295426602,138.061
1378295486602,137.745
1378295546602,137.914
1378295606602,137.839
1378295666602,137.579
1378295726602,137.871
1378295786602,137.927
1378295846602,137.816
1378295906602,138.036
1378295966602,137.729
1378296026615,137.946
1378296086615,137.803
1378296146615,137.829
1378296206615,138.026
1378296266615,137.831
1378296326615,137.990
1378296386615,137.666
1378296446615,137.577
1378296506615,137.668
1378296566615,137.700
1378296626615,137.333
1378296686615,137.845
1378296746615,137.513
1378296806615,137.591
1378296866615,137.937
1378296926615,137.822
1378296986615,137.807
1378297046615,137.659
1378297106615,137.537
1378297166615,137.377
1378297226615,137.342
1378297286615,137.749
1378297346615,137.658
1378297406615,137.629
1378297466615,137.684
1378297526615,137.600
1378297586615,137.461
1378297646615,137.092
1378297706615,137.766
1378297766615,137.230
1378297826615,136.920
1378297886615,137.387
1378297946615,137.483
1378298006615,137.461
1378298066615,137.478
1378298126615,137.430
1378298186615,137.389
1378298246615,137.136
1378298306615,137.389
1378298366615,137.286
1378298426615,137.465
1378298486615,137.354
1378298546615,137.630
1378298606615,137.105
1378298666615,137.498
1378298726615,137.580
1378298786615,137.263
1378298846615,137.366
1378298906615,137.415
1378298966615,137.331
1378299026615,137.289
1378299086615,137.206
1378299146615,136.826
1378299206615,137.335
1378299266615,136.955
1378299326615,137.219
1378299386615,137.130
1378299446615,137.172
1378299506615,137.265
1378299566615,137.014
1378299626628,137.180
1378299686628,137.057
1378299746628,136.919
1378299806628,136.983
1378299866628,137.312
1378299926628,137.054
1378299986628,137.105
1378300046628,137.260
1378300106628,137.151
1378300166628,137.185
1378300226628,137.228
1378300286628,136.856
1378300346628,137.009
1378300406628,136.788
1378300466628,136.978
1378300526628,137.058
1378300586628,136.743
1378300646628,136.844
1378300706628,136.766
1378300766628,137.054
1378300826628,136.807
1378300886628,136.691
1378300946628,136.992
1378301006628,137.186
1378301066628,137.337
1378301126628,136.893
1378301186628,137.055
1378301246628,137.065
1378301306628,137.159
1378301366628,136.903
1378301426628,137.233
1378301486628,137.077
1378301546628,137.046
1378301606628,137.175
1378301666628,136.982
1378301726628,136.736
1378301786628,137.030
1378301846628,137.480
1378301906628,136.946
1378301966628,136.844
1378302026628,137.156
1378302086628,136.990
1378302146628,137.048
1378302206628,136.982
1378302266628,136.967
1378302326628,137.018
1378302386628,136.983
1378302446628,137.032
1378302506628,136.722
1378302566628,137.106
1378302626628,137.032
1378302686628,137.187
1378302746628,136.965
1378302806628,137.483
1378302866628,137.096
1378302926628,137.218
1378302986628,136.985
1378303046628,137.047
1378303106628,137.338
1378303166628,137.291
1378303226641,137.252
1378303286641,136.880
1378303346641,137.698
1378303406641,137.011
1378303466641,137.139
1378303526641,137.353
1378303586641,137.191
1378303646641,137.272
1378303706641,137.353
1378303766641,137.373
1378303826641,137.233
1378303886641,137.175
1378303946641,137.023
1378304006641,137.497
1378304066641,137.024
1378304126641,137.666
1378304186641,137.086
1378304246641,137.255
1378304306641,137.214
1378304366641,137.436
1378304426641,137.429
1378304486641,137.113
1378304546641,137.249
1378304606641,137.355
1378304666641,137.366
1378304726641,137.353
1378304786641,137.321
1378304846641,137.342
1378304906641,137.253
1378304966641,137.449
1378305026641,137.681
1378305086641,137.809
1378305146641,137.473
1378305206641,137.314
1378305266641,137.804
1378305326641,137.566
1378305386641,137.513
1378305446641,137.604
1378305506641,137.814
1378305566641,137.904
1378305626641,137.743
1378305686641,137.647
1378305746641,137.935
1378305806641,137.689
1378305866641,137.684
1378305926641,137.611
1378305986641,137.679
1378306046641,137.533
1378306106641,137.829
1378306166641,137.735
1378306226641,137.868
1378306286641,138.049
1378306346641,137.727
1378306406641,137.620
1378306466641,137.862
1378306526641,137.711
1378306586641,137.747
1378306646641,138.169
1378306706641,137.810
1378306766641,137.925
1378306826655,137.755
1378306886655,137.698
1378306946655,137.908
1378307006655,137.845
1378307066655,138.014
1378307126655,137.896
1378307186655,138.101
1378307246655,137.975
1378307306655,137.702
1378307366655,137.936
1378307426655,137.841
1378307486655,138.021
1378307546655,137.919
1378307606655,137.889
1378307666655,138.069
1378307726655,138.437
1378307786655,138.312
1378307846655,138.246
1378307906655,138.201
1378307966655,138.062
1378308026655,138.253
1378308086655,138.120
1378308146655,137.855
1378308206655,138.207
1378308266655,138.218
1378308326655,138.079
1378308386655,138.444
1378308446655,138.019
1378308506655,138.201
1378308566655,138.465
1378308626655,138.611
1378308686655,138.481
1378308746655,138.262
1378308806655,138.703
1378308866655,138.639
1378308926655,138.054
1378308986655,138.314
1378309046655,138.228
1378309106655,138.080
1378309166655,137.900
1378309226655,138.040
1378309286655,138.075
1378309346655,138.155
1378309406655,137.814
1378309466655,138.017
1378309526655,138.163
1378309586655,138.271
1378309646655,138.099
1378309706655,138.069
1378309766655,138.085
1378309826655,138.097
1378309886655,137.966
1378309946655,138.161
1378310006655,138.100
1378310066655,138.007
1378310126655,138.171
1378310186655,138.350
1378310246655,138.202
1378310306655,138.222
1378310366655,138.670
1378310426648,138.836
1378310486648,138.630
1378310546648,138.582
1378310606648,138.659
1378310666648,138.505
1378310726648,138.622
1378310786648,138.435
1378310846648,138.368
1378310906648,138.306
1378310966648,138.608
1378311026648,138.736
1378311086648,138.795
1378311146648,138.469
1378311206648,138.478
1378311266648,138.711
1378311326648,138.618
1378311386648,138.707
1378311446648,138.532
1378311506648,138.786
1378311566648,138.951
1378311626648,138.671
1378311686648,139.656
1378311746648,138.905
1378311806648,138.715
1378311866648,138.782
1378311926648,138.648
1378311986648,138.555
1378312046648,138.743
1378312106648,138.601
1378312166648,138.946
1378312226648,138.634
1378312286648,138.751
1378312346648,138.837
1378312406648,138.844
1378312466648,138.659
1378312526648,139.013
1378312586648,138.641
1378312646648,138.768
1378312706648,138.910
1378312766648,138.924
1378312826648,138.963
1378312886648,138.639
1378312946648,139.124
1378313006648,138.983
1378313066648,138.748
1378313126648,138.947
1378313186648,138.608
1378313246648,139.018
1378313306648,138.689
1378313366648,138.910
1378313426648,138.830
1378313486648,138.929
1378313546648,139.023
1378313606648,138.729
1378313666648,138.840
1378313726648,139.023
1378313786648,138.951
1378313846648,138.603
1378313906648,138.928
1378313966648,138.986
1378314026662,139.045
1378314086662,139.092
1378314146662,138.968
1378314206662,138.732
1378314266662,138.913
1378314326662,138.893
1378314386662,139.073
1378314446662,138.757
1378314506662,138.765
1378314566662,139.000
1378314626662,138.550
1378314686662,139.000
1378314746662,138.885
1378314806662,138.883
1378314866662,139.045
1378314926662,138.852
1378314986662,138.734
1378315046662,138.660
1378315106662,138.812
1378315166662,138.622
1378315226662,139.144
1378315286662,138.769
1378315346662,139.059
1378315406662,138.671
1378315466662,139.137
1378315526662,138.795
1378315586662,138.787
1378315646662,138.569
1378315706662,138.647
1378315766662,138.725
1378315826662,138.769
1378315886662,138.794
1378315946662,138.819
1378316006662,138.396
1378316066662,138.848
1378316126662,138.627
1378316186662,138.540
1378316246662,138.639
1378316306662,138.733
1378316366662,138.644
1378316426662,138.846
1378316486662,138.833
1378316546662,138.933
1378316606662,138.630
1378316666662,138.812
1378316726662,138.615
1378316786662,138.932
1378316846662,138.320
1378316906662,139.092
1378316966662,138.822
1378317026662,138.844
1378317086662,138.720
1378317146662,138.650
1378317206662,138.613
1378317266662,138.692
1378317326662,138.324
1378317386662,139.036
1378317446662,138.830
1378317506662,138.777
1378317566662,138.658
1378317626675,138.652
1378317686675,138.831
1378317746675,138.578
1378317806675,138.699
1378317866675,138.889
1378317926675,138.971
1378317986675,138.903
1378318046675,138.742
1378318106675,138.495
1378318166675,138.802
1378318226675,138.726
1378318286675,138.624
1378318346675,138.775
1378318406675,138.718
1378318466675,138.872
1378318526675,138.413
1378318586675,138.805
1378318646675,138.542
1378318706675,138.606
1378318766675,138.737
1378318826675,138.913
1378318886675,138.774
1378318946675,138.849
1378319006675,138.779
1378319066675,139.027
1378319126675,138.898
1378319186675,139.065
1378319246675,138.721
1378319306675,139.081
1378319366675,138.718
1378319426675,138.476
1378319486675,138.608
1378319546675,138.553
1378319606675,139.021
1378319666675,138.878
1378319726675,138.702
1378319786675,138.768
1378319846675,138.779
1378319906675,138.709
1378319966675,138.316
1378320026675,138.618
1378320086675,138.691
1378320146675,138.554
1378320206675,138.702
1378320266675,138.597
1378320326675,138.879
1378320386675,138.721
1378320446675,138.746
1378320506675,138.769
1378320566675,138.980
1378320626675,138.699
1378320686675,139.120
1378320746675,139.066
1378320806675,138.816
1378320866675,138.938
1378320926675,139.129
1378320986675,138.640
1378321046675,138.914
1378321106675,138.891
1378321166675,138.763
1378321226689,139.203
1378321286689,138.912
1378321346689,138.937
1378321406689,138.981
1378321466689,138.966
1378321526689,139.220
1378321586689,139.022
1378321646689,138.977
1378321706689,139.255
1378321766689,139.089
1378321826689,139.096
1378321886689,139.233
1378321946689,139.086
1378322006689,139.107
1378322066689,139.086
1378322126689,139.277
1378322186689,138.886
1378322246689,139.072
1378322306689,139.066
1378322366689,139.479
1378322426689,139.199
1378322486689,138.999
1378322546689,139.154
1378322606689,139.395
1378322666689,139.192
1378322726689,139.423
1378322786689,139.317
1378322846689,139.253
1378322906689,139.230
1378322966689,139.261
1378323026689,139.586
1378323086689,139.328
1378323146689,139.172
1378323206689,139.046
1378323266689,139.103
1378323326689,139.482
1378323386689,139.139
1378323446689,139.149
1378323506689,138.998
1378323566689,139.232
1378323626689,139.214
1378323686689,139.234
1378323746689,139.369
1378323806689,139.260
1378323866689,139.428
1378323926689,139.176
1378323986689,139.617
1378324046689,139.345
1378324106689,139.404
1378324166689,139.346
1378324226689,139.211
1378324286689,139.088
1378324346689,139.116
1378324406689,139.160
1378324466689,139.155
1378324526689,139.100
1378324586689,139.295
1378324646689,139.066
1378324706689,139.257
1378324766689,139.280
1378324826703,139.167
1378324886703,139.265
1378324946703,138.704
1378325006703,139.056
1378325066703,139.348
1378325126703,138.996
1378325186703,139.378
1378325246703,139.164
1378325306702,139.565
1378325366702,139.104
1378325426702,139.447
1378325486702,139.101
1378325546702,139.483
1378325606702,139.137
1378325666702,138.941
1378325726702,139.283
1378325786703,139.094
1378325846703,139.324
1378325906703,139.297
1378325966702,139.381
1378326026702,139.012
1378326086702,139.459
1378326146703,139.469
1378326206703,139.349
1378326266703,139.426
1378326326703,139.105
1378326386703,139.039
1378326446703,139.090
1378326506703,139.213
1378326566703,139.047
1378326626703,139.452
1378326686702,139.073
1378326746702,138.759
1378326806702,139.016
1378326866702,139.178
1378326926702,139.069
1378326986702,139.206
1378327046702,138.714
1378327106702,138.851
1378327166703,138.754
1378327226703,139.023
1378327286703,139.005
1378327346702,138.761
1378327406702,139.010
1378327466703,139.359
1378327526703,139.160
1378327586703,139.003
1378327646703,139.012
1378327706703,139.034
1378327766703,138.631
1378327826703,138.996
1378327886703,138.914
1378327946703,138.685
1378328006702,138.703
1378328066702,138.505
1378328126702,139.032
1378328186702,139.229
1378328246702,138.869
1378328306702,138.700
1378328366702,139.155
1378328426716,139.034
1378328486716,138.998
1378328546716,138.978
1378328606716,138.859
1378328666716,139.146
1378328726716,138.993
1378328786716,139.263
1378328846716,138.788
1378328906716,138.987
1378328966716,139.199
1378329026716,138.995
1378329086716,139.036
1378329146716,139.184
1378329206716,138.940
1378329266716,139.050
1378329326716,138.985
1378329386716,139.136
1378329446716,139.289
1378329506716,138.766
1378329566716,139.170
1378329626716,139.128
1378329686716,139.095
1378329746716,138.773
1378329806716,138.998
1378329866716,138.757
1378329926716,139.116
1378329986716,139.095
1378330046716,138.811